Weather Roundup
Issued by NWS

Home | Current Version | Previous Version | Text Only | Print | Product List | Glossary On
Versions: 1 2 3 4 5 6 7 8 9 10 11 12 13 14 15 16 17 18 19 20 21 22 23 24 25 26 27 28 29 30 31 32 33 34 35 36 37 38 39 40 41 42 43 44 45 46 47 48 49 50
000
NZUS93 KARX 250510
HRRWXR

CURRENT HOURLY OBSERVATIONS ACROSS
MUCH OF THE UPPER MISSISSIPPI VALLEY
NATIONAL WEATHER SERVICE LA CROSSE WI
1100 PM CST FRI FEB 24 2017


...SOUTHEAST MINNESOTA...


CITY           SKY/WX    TMP DP  RH WIND       PRES   REMARKS
ROCHESTER      CLOUDY    18  11  74 N16       29.80R WCI   3
ROCHESTER/MAYO CLOUDY    19  12  73 NW12G18   29.81S WCI   7
WINONA         CLOUDY    21  18  86 NW8       29.83S WCI  12
AUSTIN         CLOUDY    18  10  73 N14       29.83R WCI   4
ALBERT LEA     PTCLDY    18  10  73 NW10G18   29.85R WCI   6
DODGE CENTER   NOT AVBL
PRESTON        CLOUDY    17  14  86 N10       29.79R WCI   5
OWATONNA       PTCLDY    18  10  73 NW15      29.86S WCI   3
FARIBAULT      MOCLDY    19  10  68 NW10G16   29.88S WCI   8
$$

...ELSEWHERE IN MINNESOTA...


CITY           SKY/WX    TMP DP  RH WIND       PRES   REMARKS
MINNEAPOLIS    PTCLDY    21   7  54 N18G26    29.89S WCI   6
INTNL FALLS    CLEAR      7   0  73 NW10      29.95S WCI  -8
DULUTH         CLOUDY    14   5  67 N14G22    29.83F WCI  -1
RED WING       CLOUDY    21   7  53 N13G21    29.84S WCI   9
REDWOOD FALLS  CLEAR     20  11  68 NW18G26   29.98R WCI   5
MANKATO          N/A     20  10  65 N14       29.91R WCI   7
WORTHINGTON    CLOUDY    17  12  80 NW25      29.97S WCI  -1
FAIRMONT       CLOUDY    19  14  81 NW22      29.92R WCI   2
$$

...SOUTHWEST WISCONSIN...


CITY           SKY/WX    TMP DP  RH WIND       PRES   REMARKS
LA CROSSE      CLOUDY    21  15  78 N21G28    29.78S HAZE    WCI   5
PRAIRIE DU CHI LGT SNOW  22  18  86 NW17G24   29.76R WCI   8
BOSCOBEL       LGT SNOW  23  18  81 NW14G20   29.73R WCI  11
LONE ROCK      LGT SNOW  23  17  78 N20G26    29.69R WCI   8
PLATTEVILLE    CLOUDY    25  24  96 NW7       29.68R WCI  17
FORT MC COY    LGT SNOW  19  15  87 N12G17    29.75S WCI   6
CAMP DOUGLAS   LGT SNOW  19  16  86 NW7       29.69S WCI  10
MAUSTON-NEW LI LGT SNOW  21  18  86 NW10G16   29.68S WCI  10
VIROQUA        CLOUDY    19  15  86 N10       29.71R WCI   7
WIS DELLS      LGT SNOW  21  19  89 N6        29.65S WCI  14
$$

...ELSEWHERE IN WISCONSIN...


CITY           SKY/WX    TMP DP  RH WIND       PRES   REMARKS
MILWAUKEE      CLOUDY    29  23  78 NW13      29.58S WCI  19
MADISON        FLURRIES  24  21  88 N16       29.63S WCI  11
GREEN BAY      CLOUDY    23  22  96 NW12G23   29.59S WCI  12
EAU CLAIRE     LGT SNOW  17  14  88 N6        29.79F FOG     WCI   9
BLACK RVR FLS  LGT SNOW  19  13  79 N12G17    29.75S WCI   6
MEDFORD        LGT SNOW  15  11  85 NW14      29.67S WCI   1
WAUSAU         LGT SNOW  18  14  84 NW14G20   29.64S FOG     WCI   4
WIS RAPIDS     LGT SNOW  19  16  86 N10       29.67F FOG     WCI   8
MARSHFIELD     LGT SNOW  18  13  80 N15       29.67S WCI   4
RICE LAKE      MOCLDY    20   8  59 N13G23    29.81F WCI   7
$$

...NORTHEAST IOWA...


CITY           SKY/WX    TMP DP  RH WIND       PRES   REMARKS
WATERLOO       MIX PCPN  22  15  75 N25G31    29.82R WCI   5
DUBUQUE        LGT SNOW  23  20  88 NW21      29.69S FOG     WCI   8
DECORAH        FLURRIES  19  14  79 N20G28    29.75R WCI   4
MASON CITY     CLEAR     18  14  84 N21       29.86R WCI   1
CHARLES CITY   FLURRIES  21  16  79 N22G28    29.82R WCI   5
OELWEIN        LGT SNOW  21  18  86 N16G28    29.79R WCI   7
$$

...ELSEWHERE IN IOWA...


CITY           SKY/WX    TMP DP  RH WIND       PRES   REMARKS
DES MOINES     FLURRIES  24  16  71 NW18G28   29.91R WCI  10
IOWA CITY      LGT SNOW  26  22  84 NW15      29.80R FOG     WCI  14
FORT DODGE     CLEAR     19  12  73 NW9G16    29.92R WCI   9
MARSHALLTOWN   MOCLDY    22  16  78 NW17      29.85R WCI   8
CEDAR RAPIDS   LGT SNOW  23  21  92 N23G30    29.78R FOG     WCI   7
$$

...NORTHERN ILLINOIS...


CITY           SKY/WX    TMP DP  RH WIND       PRES   REMARKS
CHICAGO-OHARE  CLOUDY    34  30  85 NW13      29.59R WCI  25
CHICAGO-MIDWAY CLOUDY    34  30  85 W9        29.60R WCI  27
MOLINE         LGT SNOW  31  26  82 NW16G24   29.71R WCI  20
ROCKFORD       LGT SNOW  29  25  85 NW10      29.65R FOG     WCI  20
PEORIA         FLURRIES  35  31  85 W14       29.69S WCI  26
$$

NOTE: "FAIR" INDICATES FEW OR NO CLOUDS BELOW 12,000 FEET WITH NO
SIGNIFICANT WEATHER AND/OR OBSTRUCTIONS TO VISIBILITY. WIND
SPEEDS ARE IN MILES-PER-HOUR.




USA.gov is the U.S. government's official web portal to all federal, state and local government web resources and services.